Time,TemperatureF,DewpointF,PressureIn,WindDirection,WindDirectionDegrees,WindSpeedMPH,WindSpeedGustMPH,Humidity,HourlyPrecipIn,Conditions,Clouds,dailyrainin,SoftwareType,DateUTC
2013-05-05 00:00:00,60.0,53.1,29.84,SE,135,1.0,9.0,78,0.00,,---,0.00,VWS V14.01,2013-05-05 07:00:00,
2013-05-05 00:05:00,59.9,53.0,29.84,South,178,3.0,5.0,79,0.00,,,0.00,weatherlink.com 1.10,2013-05-05 07:05:00,
2013-05-05 00:15:00,59.8,53.3,29.83,ESE,112,1.0,7.0,79,0.00,,---,0.00,VWS V14.01,2013-05-05 07:15:00,
2013-05-05 00:20:00,59.8,54.0,29.84,ESE,111,2.0,6.0,80,0.00,,,0.00,weatherlink.com 1.10,2013-05-05 07:20:00,
2013-05-05 00:30:00,59.8,53.6,29.84,ESE,112,1.0,6.0,80,0.00,,---,0.00,VWS V14.01,2013-05-05 07:30:00,
2013-05-05 00:35:00,59.7,54.0,29.84,SE,139,1.0,6.0,80,0.00,,,0.00,weatherlink.com 1.10,2013-05-05 07:35:00,
2013-05-05 00:45:00,59.7,53.2,29.84,SE,135,1.0,7.0,79,0.00,,---,0.00,VWS V14.01,2013-05-05 07:45:00,
2013-05-05 00:50:00,59.7,54.0,29.83,East,90,2.0,6.0,80,0.00,,,0.00,weatherlink.com 1.10,2013-05-05 07:50:00,
2013-05-05 01:00:00,59.7,53.5,29.83,ESE,112,1.0,6.0,80,0.00,,---,0.00,VWS V14.01,2013-05-05 08:00:00,
2013-05-05 01:05:00,59.8,54.0,29.84,ESE,117,1.0,7.0,80,0.00,,,0.00,weatherlink.com 1.10,2013-05-05 08:05:00,
2013-05-05 01:15:00,59.8,53.6,29.83,ESE,112,2.0,7.0,80,0.00,,---,0.00,VWS V14.01,2013-05-05 08:15:00,
2013-05-05 01:20:00,59.8,54.0,29.83,ESE,111,2.0,5.0,80,0.00,,,0.00,weatherlink.com 1.10,2013-05-05 08:20:00,
2013-05-05 01:30:00,59.8,53.6,29.84,ESE,112,2.0,8.0,80,0.00,,---,0.00,VWS V14.01,2013-05-05 08:30:00,
2013-05-05 01:35:00,59.8,54.0,29.84,ESE,117,1.0,8.0,80,0.00,,,0.00,weatherlink.com 1.10,2013-05-05 08:35:00,
2013-05-05 01:45:00,59.7,53.9,29.83,ESE,112,1.0,8.0,81,0.00,,---,0.00,VWS V14.01,2013-05-05 08:45:00,
2013-05-05 01:50:00,59.8,54.0,29.84,ESE,107,2.0,5.0,81,0.00,,,0.00,weatherlink.com 1.10,2013-05-05 08:50:00,
2013-05-05 02:00:00,59.8,54.0,29.83,ESE,112,1.0,7.0,81,0.00,,---,0.00,VWS V14.01,2013-05-05 09:00:00,
2013-05-05 02:05:00,59.8,54.0,29.83,ESE,122,1.0,3.0,81,0.00,,,0.00,weatherlink.com 1.10,2013-05-05 09:05:00,
2013-05-05 02:15:00,59.8,54.3,29.83,ESE,112,1.0,5.0,82,0.00,,---,0.00,VWS V14.01,2013-05-05 09:15:00,
2013-05-05 02:20:00,59.9,54.0,29.83,ESE,117,2.0,4.0,82,0.00,,,0.00,weatherlink.com 1.10,2013-05-05 09:20:00,
2013-05-05 02:30:00,59.9,54.4,29.83,ESE,112,1.0,5.0,82,0.00,,---,0.00,VWS V14.01,2013-05-05 09:30:00,
2013-05-05 02:35:00,60.0,55.0,29.83,SSE,167,0.0,5.0,82,0.00,,,0.00,weatherlink.com 1.10,2013-05-05 09:35:00,
2013-05-05 02:45:00,60.0,54.5,29.82,ESE,112,1.0,5.0,82,0.00,,---,0.00,VWS V14.01,2013-05-05 09:45:00,
2013-05-05 02:50:00,60.0,55.0,29.82,SSE,156,0.0,4.0,82,0.00,,,0.00,weatherlink.com 1.10,2013-05-05 09:50:00,
2013-05-05 03:00:00,60.1,54.6,29.82,ESE,112,1.0,8.0,82,0.00,,---,0.00,VWS V14.01,2013-05-05 10:00:00,
2013-05-05 03:05:00,60.1,55.0,29.82,SE,142,4.0,8.0,82,0.00,,,0.00,weatherlink.com 1.10,2013-05-05 10:05:00,
2013-05-05 03:15:00,60.1,54.3,29.82,ESE,112,1.0,8.0,81,0.00,,---,0.00,VWS V14.01,2013-05-05 10:15:00,
2013-05-05 03:20:00,60.1,55.0,29.82,SE,136,3.0,5.0,82,0.00,,,0.00,weatherlink.com 1.10,2013-05-05 10:20:00,
2013-05-05 03:30:00,60.2,54.7,29.82,ESE,112,1.0,8.0,82,0.00,,---,0.00,VWS V14.01,2013-05-05 10:30:00,
2013-05-05 03:35:00,60.2,55.0,29.82,ESE,114,1.0,6.0,82,0.00,,,0.00,weatherlink.com 1.10,2013-05-05 10:35:00,
2013-05-05 03:45:00,60.2,54.7,29.82,ESE,112,1.0,5.0,82,0.00,,---,0.00,VWS V14.01,2013-05-05 10:45:00,
2013-05-05 03:50:00,60.2,55.0,29.82,SE,131,0.0,4.0,82,0.00,,,0.00,weatherlink.com 1.10,2013-05-05 10:50:00,
2013-05-05 04:00:00,60.2,54.7,29.82,ESE,112,1.0,7.0,82,0.00,,---,0.00,VWS V14.01,2013-05-05 11:00:00,
2013-05-05 04:05:00,60.2,55.0,29.82,ESE,108,0.0,5.0,82,0.00,,,0.00,weatherlink.com 1.10,2013-05-05 11:05:00,
2013-05-05 04:15:00,60.2,54.7,29.82,ESE,112,1.0,7.0,82,0.00,,---,0.00,VWS V14.01,2013-05-05 11:15:00,
2013-05-05 04:20:00,60.2,55.0,29.82,ESE,113,0.0,8.0,82,0.00,,,0.00,weatherlink.com 1.10,2013-05-05 11:20:00,
2013-05-05 04:30:00,60.2,54.7,29.81,ESE,112,1.0,8.0,82,0.00,,---,0.00,VWS V14.01,2013-05-05 11:30:00,
2013-05-05 04:35:00,60.1,55.0,29.81,SE,125,2.0,7.0,82,0.00,,,0.00,weatherlink.com 1.10,2013-05-05 11:35:00,
2013-05-05 04:45:00,60.1,54.9,29.81,ESE,112,2.0,7.0,83,0.00,,---,0.00,VWS V14.01,2013-05-05 11:45:00,
2013-05-05 04:50:00,60.1,55.0,29.81,ESE,123,2.0,5.0,83,0.00,,,0.00,weatherlink.com 1.10,2013-05-05 11:50:00,
2013-05-05 05:00:00,60.1,54.9,29.81,ESE,112,1.0,5.0,83,0.00,,---,0.00,VWS V14.01,2013-05-05 12:00:00,
2013-05-05 05:05:00,60.2,55.0,29.82,SSW,207,0.0,6.0,83,0.00,,,0.00,weatherlink.com 1.10,2013-05-05 12:05:00,
2013-05-05 05:15:00,60.2,55.0,29.82,ESE,112,1.0,6.0,83,0.00,,---,0.00,VWS V14.01,2013-05-05 12:15:00,
2013-05-05 05:20:00,60.2,55.0,29.82,SE,134,0.0,8.0,83,0.00,,,0.00,weatherlink.com 1.10,2013-05-05 12:20:00,
2013-05-05 05:30:00,60.2,55.0,29.82,ESE,112,1.0,8.0,83,0.00,,---,0.00,VWS V14.01,2013-05-05 12:30:00,
2013-05-05 05:35:00,60.2,55.0,29.82,SE,131,1.0,7.0,83,0.00,,,0.00,weatherlink.com 1.10,2013-05-05 12:35:00,
2013-05-05 05:45:00,60.2,55.3,29.82,ESE,112,2.0,7.0,84,0.00,,---,0.00,VWS V14.01,2013-05-05 12:45:00,
2013-05-05 05:50:00,60.2,55.0,29.82,ESE,113,2.0,7.0,84,0.00,,,0.00,weatherlink.com 1.10,2013-05-05 12:50:00,
2013-05-05 06:00:00,60.2,55.3,29.83,ESE,112,1.0,7.0,84,0.00,,---,0.00,VWS V14.01,2013-05-05 13:00:00,
2013-05-05 06:05:00,60.2,55.0,29.83,SSE,151,0.0,8.0,84,0.00,,,0.00,weatherlink.com 1.10,2013-05-05 13:05:00,
2013-05-05 06:15:00,60.3,55.5,29.83,South,180,1.0,8.0,84,0.00,,---,0.00,VWS V14.01,2013-05-05 13:15:00,
2013-05-05 06:20:00,60.3,56.0,29.84,SSW,194,3.0,6.0,84,0.00,,,0.00,weatherlink.com 1.10,2013-05-05 13:20:00,
2013-05-05 06:30:00,60.3,55.5,29.84,South,180,1.0,6.0,84,0.00,,---,0.00,VWS V14.01,2013-05-05 13:30:00,
2013-05-05 06:35:00,60.3,56.0,29.84,South,179,0.0,4.0,84,0.00,,,0.00,weatherlink.com 1.10,2013-05-05 13:35:00,
2013-05-05 06:45:00,60.3,55.5,29.85,South,180,1.0,5.0,84,0.00,,---,0.00,VWS V14.01,2013-05-05 13:45:00,
2013-05-05 06:50:00,60.4,55.0,29.85,SE,124,1.0,5.0,83,0.00,,,0.00,weatherlink.com 1.10,2013-05-05 13:50:00,
2013-05-05 07:00:00,60.6,55.4,29.85,South,180,1.0,5.0,83,0.00,,---,0.00,VWS V14.01,2013-05-05 14:00:00,
2013-05-05 07:05:00,60.7,56.0,29.85,South,178,2.0,5.0,83,0.00,,,0.00,weatherlink.com 1.10,2013-05-05 14:05:00,
2013-05-05 07:15:00,60.9,55.4,29.85,South,180,1.0,8.0,82,0.00,,---,0.00,VWS V14.01,2013-05-05 14:15:00,
2013-05-05 07:20:00,60.9,55.0,29.86,SSE,165,0.0,11.0,81,0.00,,,0.00,weatherlink.com 1.10,2013-05-05 14:20:00,
2013-05-05 07:30:00,61.1,54.9,29.86,South,180,2.0,11.0,80,0.00,,---,0.00,VWS V14.01,2013-05-05 14:30:00,
2013-05-05 07:35:00,61.3,55.0,29.86,SSE,165,1.0,5.0,80,0.00,,,0.00,weatherlink.com 1.10,2013-05-05 14:35:00,
2013-05-05 07:45:00,61.3,55.1,29.86,South,180,2.0,9.0,80,0.00,,---,0.00,VWS V14.01,2013-05-05 14:45:00,
2013-05-05 07:50:00,61.4,55.0,29.87,SSW,198,4.0,7.0,80,0.00,,,0.00,weatherlink.com 1.10,2013-05-05 14:50:00,
2013-05-05 08:00:00,61.4,55.2,29.87,South,180,3.0,8.0,80,0.00,,---,0.00,VWS V14.01,2013-05-05 15:00:00,
2013-05-05 08:05:00,61.5,55.0,29.87,ESE,113,1.0,7.0,80,0.00,,,0.00,weatherlink.com 1.10,2013-05-05 15:05:00,
2013-05-05 08:15:00,61.6,55.0,29.87,South,180,3.0,7.0,79,0.00,,---,0.00,VWS V14.01,2013-05-05 15:15:00,
2013-05-05 08:20:00,61.8,55.0,29.87,SSE,167,1.0,8.0,79,0.00,,,0.00,weatherlink.com 1.10,2013-05-05 15:20:00,
2013-05-05 08:30:00,62.0,55.4,29.88,South,180,2.0,8.0,79,0.00,,---,0.00,VWS V14.01,2013-05-05 15:30:00,
2013-05-05 08:35:00,62.4,56.0,29.88,SSE,157,1.0,6.0,79,0.00,,,0.00,weatherlink.com 1.10,2013-05-05 15:35:00,
2013-05-05 08:45:00,62.9,55.6,29.88,South,180,2.0,8.0,77,0.00,,---,0.00,VWS V14.01,2013-05-05 15:45:00,
2013-05-05 08:50:00,62.9,55.0,29.88,South,191,5.0,8.0,76,0.00,,,0.00,weatherlink.com 1.10,2013-05-05 15:50:00,
2013-05-05 09:00:00,62.7,55.4,29.89,South,180,3.0,8.0,77,0.00,,---,0.00,VWS V14.01,2013-05-05 16:00:00,
2013-05-05 09:05:00,62.8,56.0,29.89,South,187,7.0,7.0,77,0.00,,,0.00,weatherlink.com 1.10,2013-05-05 16:05:00,
2013-05-05 09:15:00,62.9,55.2,29.89,South,180,2.0,9.0,76,0.00,,---,0.00,VWS V14.01,2013-05-05 16:15:00,
2013-05-05 09:20:00,63.0,55.0,29.90,East,98,2.0,8.0,75,0.00,,,0.00,weatherlink.com 1.10,2013-05-05 16:20:00,
2013-05-05 09:30:00,63.4,55.3,29.90,ESE,112,2.0,6.0,75,0.00,,---,0.00,VWS V14.01,2013-05-05 16:30:00,
2013-05-05 09:35:00,63.8,55.0,29.89,South,170,5.0,7.0,74,0.00,,,0.00,weatherlink.com 1.10,2013-05-05 16:35:00,
2013-05-05 09:45:00,64.3,55.1,29.90,South,180,3.0,8.0,72,0.00,,---,0.00,VWS V14.01,2013-05-05 16:45:00,
2013-05-05 09:50:00,64.5,55.0,29.90,South,174,1.0,8.0,71,0.00,,,0.00,weatherlink.com 1.10,2013-05-05 16:50:00,
2013-05-05 10:06:00,63.8,55.0,29.91,SSE,165,3.0,8.0,72,0.00,,,0.00,weatherlink.com 1.10,2013-05-05 17:06:00,
2013-05-05 10:12:00,64.3,55.1,29.90,South,180,3.0,8.0,72,0.00,,---,0.00,VWS V14.01,2013-05-05 17:12:00,
2013-05-05 10:17:00,63.5,53.9,29.91,SE,132,2.0,5.0,71,0.00,,---,0.00,VWS V14.01,2013-05-05 17:17:00,
2013-05-05 10:22:00,63.4,53.8,29.91,ESE,113,3.0,5.0,71,0.00,,---,0.00,VWS V14.01,2013-05-05 17:22:00,
2013-05-05 10:27:00,63.2,53.3,29.92,SSE,168,4.0,5.0,70,0.00,,---,0.00,VWS V14.01,2013-05-05 17:27:00,
2013-05-05 10:32:00,63.0,53.5,29.92,ESE,109,1.0,4.0,71,0.00,,---,0.00,VWS V14.01,2013-05-05 17:32:00,
2013-05-05 10:37:00,62.8,53.7,29.92,SSE,162,0.0,9.0,72,0.00,,---,0.00,VWS V14.01,2013-05-05 17:37:00,
2013-05-05 10:42:00,62.7,53.5,29.92,South,169,2.0,9.0,72,0.00,,---,0.00,VWS V14.01,2013-05-05 17:42:00,
2013-05-05 10:54:00,62.8,54.0,29.93,South,191,4.0,9.0,72,0.00,,,0.00,weatherlink.com 1.10,2013-05-05 17:54:00,
2013-05-05 11:00:00,62.9,53.8,29.92,South,180,3.0,9.0,72,0.00,,---,0.00,VWS V14.01,2013-05-05 18:00:00,
2013-05-05 11:09:00,63.8,54.0,29.92,SE,130,0.0,11.0,70,0.00,,,0.00,weatherlink.com 1.10,2013-05-05 18:09:00,
2013-05-05 11:15:00,64.3,53.9,29.92,South,180,4.0,11.0,69,0.00,,---,0.00,VWS V14.01,2013-05-05 18:15:00,
2013-05-05 11:24:00,64.5,54.0,29.93,SSW,201,6.0,11.0,69,0.00,,,0.00,weatherlink.com 1.10,2013-05-05 18:24:00,
2013-05-05 11:30:00,64.3,53.9,29.92,South,180,4.0,11.0,69,0.00,,---,0.00,VWS V14.01,2013-05-05 18:30:00,
2013-05-05 11:39:00,64.5,54.0,29.93,SE,145,1.0,6.0,68,0.00,,,0.00,weatherlink.com 1.10,2013-05-05 18:39:00,
2013-05-05 11:45:00,64.5,53.7,29.93,South,180,2.0,9.0,68,0.00,,---,0.00,VWS V14.01,2013-05-05 18:45:00,
2013-05-05 11:54:00,65.9,54.0,29.92,ESE,109,5.0,11.0,66,0.00,,,0.00,weatherlink.com 1.10,2013-05-05 18:54:00,
2013-05-05 12:00:00,66.2,54.1,29.92,South,180,4.0,12.0,65,0.00,,---,0.00,VWS V14.01,2013-05-05 19:00:00,
2013-05-05 12:09:00,66.5,54.0,29.92,SSW,194,3.0,14.0,65,0.00,,,0.00,weatherlink.com 1.10,2013-05-05 19:09:00,
2013-05-05 12:15:00,67.0,54.4,29.92,South,180,5.0,14.0,64,0.00,,---,0.00,VWS V14.01,2013-05-05 19:15:00,
2013-05-05 12:24:00,67.9,55.0,29.92,East,83,3.0,10.0,63,0.00,,,0.00,weatherlink.com 1.10,2013-05-05 19:24:00,
2013-05-05 12:30:00,67.8,54.3,29.92,South,180,5.0,12.0,62,0.00,,---,0.00,VWS V14.01,2013-05-05 19:30:00,
2013-05-05 12:39:00,69.0,55.0,29.91,ESE,117,4.0,13.0,62,0.00,,,0.00,weatherlink.com 1.10,2013-05-05 19:39:00,
2013-05-05 12:45:00,69.4,54.9,29.91,South,180,5.0,14.0,60,0.00,,---,0.00,VWS V14.01,2013-05-05 19:45:00,
2013-05-05 12:54:00,70.2,54.0,29.91,SSW,206,5.0,10.0,57,0.00,,,0.00,weatherlink.com 1.10,2013-05-05 19:54:00,
2013-05-05 13:00:00,70.1,54.2,29.91,ESE,112,4.0,14.0,57,0.00,,---,0.00,VWS V14.01,2013-05-05 20:00:00,
2013-05-05 13:09:00,68.7,55.0,29.91,SSE,165,2.0,11.0,61,0.00,,,0.00,weatherlink.com 1.10,2013-05-05 20:09:00,
2013-05-05 13:15:00,68.8,54.4,29.91,South,180,4.0,17.0,60,0.00,,---,0.00,VWS V14.01,2013-05-05 20:15:00,
2013-05-05 13:24:00,68.8,54.0,29.90,SSE,165,5.0,12.0,60,0.00,,,0.00,weatherlink.com 1.10,2013-05-05 20:24:00,
2013-05-05 13:30:00,68.5,53.6,29.90,South,180,4.0,12.0,59,0.00,,---,0.00,VWS V14.01,2013-05-05 20:30:00,
2013-05-05 13:39:00,68.0,54.0,29.90,SSW,194,4.0,11.0,61,0.00,,,0.00,weatherlink.com 1.10,2013-05-05 20:39:00,
2013-05-05 13:45:00,67.9,54.0,29.90,South,180,4.0,11.0,61,0.00,,---,0.00,VWS V14.01,2013-05-05 20:45:00,
2013-05-05 13:55:00,67.5,54.0,29.90,SSE,161,6.0,10.0,62,0.00,,,0.00,weatherlink.com 1.10,2013-05-05 20:55:00,
2013-05-05 14:00:00,67.4,54.4,29.90,South,180,3.0,11.0,63,0.00,,---,0.00,VWS V14.01,2013-05-05 21:00:00,
2013-05-05 14:10:00,66.9,55.0,29.90,SE,131,3.0,13.0,65,0.00,,,0.00,weatherlink.com 1.10,2013-05-05 21:10:00,
2013-05-05 14:15:00,66.7,54.2,29.90,South,180,4.0,13.0,64,0.00,,---,0.00,VWS V14.01,2013-05-05 21:15:00,
2013-05-05 14:25:00,66.1,54.0,29.90,South,181,9.0,14.0,66,0.00,,,0.00,weatherlink.com 1.10,2013-05-05 21:25:00,
2013-05-05 14:30:00,65.9,54.2,29.90,South,180,5.0,14.0,66,0.00,,---,0.00,VWS V14.01,2013-05-05 21:30:00,
2013-05-05 14:40:00,66.0,54.0,29.91,South,178,10.0,13.0,66,0.00,,,0.00,weatherlink.com 1.10,2013-05-05 21:40:00,
2013-05-05 14:45:00,66.2,55.3,29.91,South,180,4.0,13.0,68,0.00,,---,0.00,VWS V14.01,2013-05-05 21:45:00,
2013-05-05 14:55:00,66.4,54.0,29.91,SSE,148,5.0,10.0,65,0.00,,,0.00,weatherlink.com 1.10,2013-05-05 21:55:00,
2013-05-05 15:00:00,66.1,54.0,29.91,South,180,5.0,14.0,65,0.00,,---,0.00,VWS V14.01,2013-05-05 22:00:00,
2013-05-05 15:10:00,65.7,54.0,29.91,South,180,3.0,11.0,67,0.00,,,0.00,weatherlink.com 1.10,2013-05-05 22:10:00,
2013-05-05 15:15:00,65.7,54.9,29.91,South,180,6.0,13.0,68,0.00,,---,0.00,VWS V14.01,2013-05-05 22:15:00,
2013-05-05 15:25:00,65.2,54.0,29.90,South,172,7.0,15.0,67,0.00,,,0.00,weatherlink.com 1.10,2013-05-05 22:25:00,
2013-05-05 15:30:00,65.1,53.9,29.90,South,180,7.0,15.0,67,0.00,,---,0.00,VWS V14.01,2013-05-05 22:30:00,
2013-05-05 15:40:00,65.2,55.0,29.90,SSE,165,3.0,12.0,69,0.00,,,0.00,weatherlink.com 1.10,2013-05-05 22:40:00,
2013-05-05 15:45:00,65.1,54.7,29.90,South,180,5.0,12.0,69,0.00,,---,0.00,VWS V14.01,2013-05-05 22:45:00,
2013-05-05 15:55:00,64.9,55.0,29.90,South,177,3.0,10.0,70,0.00,,,0.00,weatherlink.com 1.10,2013-05-05 22:55:00,
2013-05-05 16:00:00,64.9,54.9,29.90,South,180,4.0,10.0,70,0.00,,---,0.00,VWS V14.01,2013-05-05 23:00:00,
2013-05-05 16:10:00,64.5,54.0,29.89,SSE,165,1.0,10.0,69,0.00,,,0.00,weatherlink.com 1.10,2013-05-05 23:10:00,
2013-05-05 16:15:00,64.6,54.6,29.90,South,180,4.0,11.0,70,0.00,,---,0.00,VWS V14.01,2013-05-05 23:15:00,
2013-05-05 16:25:00,65.1,55.0,29.89,SSW,198,3.0,9.0,70,0.00,,,0.00,weatherlink.com 1.10,2013-05-05 23:25:00,
2013-05-05 16:30:00,65.2,55.6,29.89,South,180,3.0,10.0,71,0.00,,---,0.00,VWS V14.01,2013-05-05 23:30:00,
2013-05-05 16:40:00,65.5,55.0,29.89,South,173,4.0,10.0,70,0.00,,,0.00,weatherlink.com 1.10,2013-05-05 23:40:00,
2013-05-05 16:45:00,65.7,55.7,29.90,South,180,3.0,10.0,70,0.00,,---,0.00,VWS V14.01,2013-05-05 23:45:00,
2013-05-05 16:55:00,66.3,55.0,29.90,South,185,8.0,11.0,67,0.00,,,0.00,weatherlink.com 1.10,2013-05-05 23:55:00,
2013-05-05 17:00:00,65.8,54.5,29.90,South,180,3.0,13.0,67,0.00,,---,0.00,VWS V14.01,2013-05-06 00:00:00,
2013-05-05 17:10:00,64.7,55.0,29.90,ESE,109,4.0,10.0,71,0.00,,,0.00,weatherlink.com 1.10,2013-05-06 00:10:00,
2013-05-05 17:15:00,64.6,54.6,29.90,South,180,4.0,11.0,70,0.00,,---,0.00,VWS V14.01,2013-05-06 00:15:00,
2013-05-05 17:25:00,64.5,55.0,29.90,SSE,164,3.0,12.0,70,0.00,,,0.00,weatherlink.com 1.10,2013-05-06 00:25:00,
2013-05-05 17:30:00,64.7,54.7,29.90,South,180,5.0,12.0,70,0.00,,---,0.00,VWS V14.01,2013-05-06 00:30:00,
2013-05-05 17:40:00,65.0,55.0,29.89,SSE,157,1.0,10.0,71,0.00,,,0.00,weatherlink.com 1.10,2013-05-06 00:40:00,
2013-05-05 17:45:00,64.9,55.7,29.90,SSE,158,3.0,10.0,72,0.00,,---,0.00,VWS V14.01,2013-05-06 00:45:00,
2013-05-05 17:55:00,64.8,56.0,29.89,SSE,152,3.0,9.0,72,0.00,,,0.00,weatherlink.com 1.10,2013-05-06 00:55:00,
2013-05-05 18:00:00,65.1,55.1,29.89,SSE,158,3.0,10.0,70,0.00,,---,0.00,VWS V14.01,2013-05-06 01:00:00,
2013-05-05 18:10:00,64.5,55.0,29.89,SSW,201,9.0,14.0,71,0.00,,,0.00,weatherlink.com 1.10,2013-05-06 01:10:00,
2013-05-05 18:15:00,64.1,54.9,29.90,South,180,4.0,14.0,72,0.00,,---,0.00,VWS V14.01,2013-05-06 01:15:00,
2013-05-05 18:25:00,63.4,55.0,29.90,SE,130,4.0,7.0,75,0.00,,,0.00,weatherlink.com 1.10,2013-05-06 01:25:00,
2013-05-05 18:30:00,63.2,54.8,29.90,SSE,158,3.0,12.0,74,0.00,,---,0.00,VWS V14.01,2013-05-06 01:30:00,
2013-05-05 18:40:00,62.7,54.0,29.90,SSE,165,9.0,11.0,74,0.00,,,0.00,weatherlink.com 1.10,2013-05-06 01:40:00,
2013-05-05 18:45:00,62.5,54.5,29.90,South,180,3.0,11.0,75,0.00,,---,0.00,VWS V14.01,2013-05-06 01:45:00,
2013-05-05 18:55:00,62.3,54.0,29.90,ESE,103,3.0,7.0,75,0.00,,,0.00,weatherlink.com 1.10,2013-05-06 01:55:00,
2013-05-05 19:00:00,62.2,54.2,29.90,South,180,2.0,7.0,75,0.00,,---,0.00,VWS V14.01,2013-05-06 02:00:00,
2013-05-05 19:10:00,62.0,54.0,29.90,ESE,115,1.0,9.0,75,0.00,,,0.00,weatherlink.com 1.10,2013-05-06 02:10:00,
2013-05-05 19:15:00,61.9,54.3,29.90,SSE,158,2.0,9.0,76,0.00,,---,0.00,VWS V14.01,2013-05-06 02:15:00,
2013-05-05 19:25:00,61.8,55.0,29.90,SE,138,1.0,9.0,78,0.00,,,0.00,weatherlink.com 1.10,2013-05-06 02:25:00,
2013-05-05 19:30:00,61.7,54.4,29.90,ESE,112,2.0,9.0,77,0.00,,---,0.00,VWS V14.01,2013-05-06 02:30:00,
2013-05-05 19:40:00,61.5,55.0,29.90,SSE,153,0.0,7.0,78,0.00,,,0.00,weatherlink.com 1.10,2013-05-06 02:40:00,
2013-05-05 19:45:00,61.5,54.6,29.90,SSE,158,1.0,7.0,78,0.00,,---,0.00,VWS V14.01,2013-05-06 02:45:00,
2013-05-05 19:55:00,61.4,55.0,29.91,SSE,157,0.0,6.0,79,0.00,,,0.00,weatherlink.com 1.10,2013-05-06 02:55:00,
2013-05-05 20:00:00,61.4,54.8,29.91,ESE,112,1.0,6.0,79,0.00,,---,0.00,VWS V14.01,2013-05-06 03:00:00,
2013-05-05 20:10:00,61.4,55.0,29.91,ESE,110,3.0,7.0,79,0.00,,,0.00,weatherlink.com 1.10,2013-05-06 03:10:00,
2013-05-05 20:15:00,61.3,54.7,29.91,ESE,112,2.0,7.0,79,0.00,,---,0.00,VWS V14.01,2013-05-06 03:15:00,
2013-05-05 20:25:00,61.2,55.0,29.91,ESE,117,2.0,7.0,80,0.00,,,0.00,weatherlink.com 1.10,2013-05-06 03:25:00,
2013-05-05 20:30:00,61.1,54.9,29.91,ESE,112,1.0,7.0,80,0.00,,---,0.00,VWS V14.01,2013-05-06 03:30:00,
2013-05-05 20:40:00,61.1,55.0,29.91,SE,140,1.0,4.0,80,0.00,,,0.00,weatherlink.com 1.10,2013-05-06 03:40:00,
2013-05-05 20:45:00,61.1,54.5,29.91,ESE,112,1.0,5.0,79,0.00,,---,0.00,VWS V14.01,2013-05-06 03:45:00,
2013-05-05 20:55:00,61.1,55.0,29.92,SE,144,1.0,8.0,80,0.00,,,0.00,weatherlink.com 1.10,2013-05-06 03:55:00,
2013-05-05 21:00:00,61.1,54.9,29.92,ESE,112,2.0,8.0,80,0.00,,---,0.00,VWS V14.01,2013-05-06 04:00:00,
2013-05-05 21:10:00,61.1,55.0,29.92,ESE,122,0.0,8.0,81,0.00,,,0.00,weatherlink.com 1.10,2013-05-06 04:10:00,
2013-05-05 21:15:00,61.1,55.2,29.92,ESE,112,2.0,8.0,81,0.00,,---,0.00,VWS V14.01,2013-05-06 04:15:00,
2013-05-05 21:25:00,60.9,56.0,29.93,SE,133,0.0,6.0,84,0.00,,,0.00,weatherlink.com 1.10,2013-05-06 04:25:00,
2013-05-05 21:30:00,60.7,55.8,29.93,ESE,112,1.0,6.0,84,0.00,,---,0.00,VWS V14.01,2013-05-06 04:30:00,
2013-05-05 21:40:00,60.4,56.0,29.93,ESE,115,0.0,4.0,86,0.00,,,0.00,weatherlink.com 1.10,2013-05-06 04:40:00,
2013-05-05 21:45:00,60.3,56.1,29.93,ESE,112,1.0,5.0,86,0.00,,---,0.00,VWS V14.01,2013-05-06 04:45:00,
2013-05-05 21:55:00,60.0,57.0,29.93,ESE,123,0.0,2.0,88,0.01,,,0.01,weatherlink.com 1.10,2013-05-06 04:55:00,
2013-05-05 22:00:00,60.0,56.4,29.93,ESE,112,0.0,3.0,88,0.01,,---,0.01,VWS V14.01,2013-05-06 05:00:00,
2013-05-05 22:10:00,59.7,57.0,29.93,ESE,120,0.0,2.0,89,0.01,,,0.01,weatherlink.com 1.10,2013-05-06 05:10:00,
2013-05-05 22:15:00,59.6,56.4,29.93,ESE,112,0.0,2.0,89,0.02,,---,0.02,VWS V14.01,2013-05-06 05:15:00,
2013-05-05 22:25:00,59.5,57.0,29.92,NE,49,1.0,5.0,90,0.02,,,0.02,weatherlink.com 1.10,2013-05-06 05:25:00,
2013-05-05 22:30:00,59.5,56.6,29.92,ESE,112,1.0,5.0,90,0.02,,---,0.02,VWS V14.01,2013-05-06 05:30:00,
2013-05-05 22:40:00,59.3,56.0,29.92,ESE,109,0.0,5.0,90,0.02,,,0.02,weatherlink.com 1.10,2013-05-06 05:40:00,
2013-05-05 22:45:00,59.3,56.4,29.92,ESE,112,1.0,5.0,90,0.02,,---,0.02,VWS V14.01,2013-05-06 05:45:00,
2013-05-05 22:55:00,59.2,56.0,29.92,South,172,0.0,3.0,90,0.01,,,0.02,weatherlink.com 1.10,2013-05-06 05:55:00,
2013-05-05 23:00:00,59.1,56.2,29.92,ESE,112,0.0,3.0,90,0.02,,---,0.02,VWS V14.01,2013-05-06 06:00:00,
2013-05-05 23:10:00,59.2,56.0,29.92,SSE,167,0.0,1.0,90,0.01,,,0.02,weatherlink.com 1.10,2013-05-06 06:10:00,
2013-05-05 23:15:00,59.2,56.6,29.92,SSE,158,0.0,2.0,91,0.01,,---,0.02,VWS V14.01,2013-05-06 06:15:00,
2013-05-05 23:25:00,59.3,56.0,29.92,SSW,194,0.0,2.0,90,0.00,,,0.02,weatherlink.com 1.10,2013-05-06 06:25:00,
2013-05-05 23:30:00,59.4,56.2,29.92,SE,135,0.0,5.0,89,0.00,,---,0.02,VWS V14.01,2013-05-06 06:30:00,
2013-05-05 23:40:00,59.4,55.0,29.92,South,169,1.0,5.0,86,0.00,,,0.02,weatherlink.com 1.10,2013-05-06 06:40:00,
2013-05-05 23:45:00,59.4,55.2,29.92,ESE,112,1.0,5.0,86,0.00,,---,0.02,VWS V14.01,2013-05-06 06:45:00,
2013-05-05 23:55:00,59.6,56.0,29.93,ESE,106,8.0,8.0,88,0.00,,,0.02,weatherlink.com 1.10,2013-05-06 06:55:00,